{"data":{"norad_id":46572,"epoch":"2026-05-25T03:22:42.441600Z","epoch_age_seconds":59924,"freshness":"FRESH","line1":"1 46572U 20070AS  26145.14076900  .00183966  00000+0  87137-3 0  9999","line2":"2 46572  53.0473 120.3497 0007489  94.4936 265.6941 15.81914345312052","mean_motion":15.81914345,"eccentricity":0.0007489,"inclination_deg":53.0473,"raan_deg":120.3497,"arg_perigee_deg":94.4936,"mean_anomaly_deg":265.6941,"bstar":0.00087137,"rev_number":31205,"period_min":91.028948852474,"perigee_km":320.00731080573,"apogee_km":330.04731031008,"semimajor_km":6703.1643105579,"source":"CELESTRAK","updated_at":"2026-05-25T13:38:16.513344Z"}}